Charlottesville, VA

7:03 PM EST on January 23, 2018 (GMT -0500)
Charlottesville-Albemarle

Weather History for KCHO - April, 2013

Change the Weather History Date:

Thursday, April 25, 2013

  Actual Average Record
Temperature  
Mean Temperature 56 °F 58 °F  
Max Temperature 67 °F 70 °F 98 °F (1925)
Min Temperature 45 °F 46 °F 33 °F (1919)
Degree Days  
Heating Degree Days 9 8  
Month to date heating degree days 224 272  
Since 1 July heating degree days 4015 4276  
Cooling Degree Days 0 1  
Month to date cooling degree days 44 17  
Year to date cooling degree days 44 19  
Growing Degree Days 6 (Base 50)    
Moisture  
Dew Point 31 °F    
Average Humidity 39    
Maximum Humidity 58    
Minimum Humidity 19    
Precipitation  
Precipitation 0.00 in 0.11 in 0.80 in (2004)
Month to date precipitation 2.64 2.85  
Year to date precipitation 11.90 11.98  
Sea Level Pressure  
Sea Level Pressure 30.19 in    
Wind  
Wind Speed 6 mph (NW)    
Max Wind Speed 16 mph    
Max Gust Speed 28 mph    
Visibility 10 miles    
Events      
T = Trace of Precipitation, MM = Missing Value Source: NWS Daily Summary

Daily Weather History Graph

Daily Weather History Graph

Search for Another Location

Airport or City:

Trip Planner

Search our weather history database for the weather conditions in past years. The results will help you decide how hot, cold, wet, or windy it might be!

Date:

Astronomy

Apr. 25, 2013 Rise Set
Actual Time 6:24 AM EDT 7:59 PM EDT
Civil Twilight 5:56 AM EDT 8:27 PM EDT
Nautical Twilight 5:22 AM EDT 9:01 PM EDT
Astronomical Twilight 4:47 AM EDT 9:37 PM EDT
Moon 8:10 PM EDT (4/25) 6:06 AM EDT (4/25)
Length of Visible Light 14h 31m
Length of Day
13h 35m
Full, 100% of the Moon is Illuminated
Apr 25
Full
Apr 25
Full
May 2
Last Quarter
May 9
New
May 18
First Quarter

Hourly Weather History & Observations

Time (EDT) Temp. Windchill Dew Point Humidity Pressure Visibility Wind Dir Wind Speed Gust Speed Precip Events Conditions
12:53 AM 60.1 °F - 41.0 °F 49% 29.99 in 10.0 mi NNW 9.2 mph 19.6 mph N/A   Overcast
1:53 AM 55.9 °F - 39.0 °F 53% 30.03 in 10.0 mi North 6.9 mph - N/A   Mostly Cloudy
2:53 AM 53.1 °F - 35.1 °F 50% 30.05 in 10.0 mi NW 9.2 mph - N/A   Mostly Cloudy
3:53 AM 50.0 °F - 34.0 °F 54% 30.10 in 10.0 mi NNW 6.9 mph - N/A   Clear
4:53 AM 48.0 °F - 33.1 °F 56% 30.14 in 10.0 mi NNW 13.8 mph 19.6 mph N/A   Clear
5:53 AM 46.0 °F 42.5 °F 30.9 °F 56% 30.19 in 10.0 mi NNW 6.9 mph - N/A   Clear
6:53 AM 45.0 °F - 30.0 °F 56% 30.22 in 10.0 mi Calm Calm - N/A   Clear
7:53 AM 48.0 °F - 30.9 °F 52% 30.23 in 10.0 mi NNW 8.1 mph - N/A   Clear
8:53 AM 50.0 °F - 30.0 °F 46% 30.25 in 10.0 mi NNW 5.8 mph - N/A   Clear
9:53 AM 53.1 °F - 30.9 °F 43% 30.26 in 10.0 mi Variable 4.6 mph - N/A   Clear
10:53 AM 54.0 °F - 28.9 °F 38% 30.26 in 10.0 mi Variable 5.8 mph - N/A   Clear
11:53 AM 57.9 °F - 30.0 °F 35% 30.26 in 10.0 mi NE 8.1 mph - N/A   Clear
12:53 PM 59.0 °F - 28.9 °F 32% 30.24 in 10.0 mi NE 8.1 mph - N/A   Clear
1:53 PM 61.0 °F - 28.0 °F 29% 30.22 in 10.0 mi Variable 5.8 mph - N/A   Clear
2:53 PM 63.0 °F - 26.1 °F 25% 30.21 in 10.0 mi Calm Calm - N/A   Clear
3:53 PM 64.9 °F - 21.9 °F 19% 30.19 in 10.0 mi SSE 8.1 mph - N/A   Clear
4:53 PM 66.9 °F - 28.0 °F 23% 30.17 in 10.0 mi SSW 5.8 mph - N/A   Clear
5:53 PM 66.0 °F - 30.9 °F 27% 30.17 in 10.0 mi South 6.9 mph - N/A   Clear
6:53 PM 64.0 °F - 28.9 °F 27% 30.17 in 10.0 mi South 6.9 mph - N/A   Clear
7:53 PM 61.0 °F - 28.9 °F 30% 30.18 in 10.0 mi South 6.9 mph - N/A   Clear
8:53 PM 55.9 °F - 32.0 °F 40% 30.20 in 10.0 mi South 4.6 mph - N/A   Clear
9:53 PM 57.0 °F - 34.0 °F 42% 30.24 in 10.0 mi SW 4.6 mph - N/A   Clear
10:53 PM 51.1 °F - 34.0 °F 52% 30.27 in 10.0 mi NNW 4.6 mph - N/A   Clear
11:53 PM 52.0 °F - 27.0 °F 38% 30.30 in 10.0 mi Calm Calm - N/A   Clear